{"data":{"norad_id":56823,"intl_designator":"2023-079A","name":"STARLINK-30119","alt_names":[],"object_type":"PAYLOAD","status":"ACTIVE","operator":null,"country":"US","launch_date":"2023-06-04","launch_site_code":"AFETR","launch_vehicle":null,"mission":null,"orbit_class":"UNKNOWN","rcs_meters":null,"size_class":null,"mass_kg":null,"dimensions":null,"purposes":["comms"],"wikipedia_slug":null,"has_3d_model":false,"image_url":null,"decayed_at":null,"tle_current":{"epoch":"2026-09-20T22:06:11.388096Z","epoch_age_seconds":81674,"freshness":"FRESH","line1":"1 56823U 23079A   26263.92096514  .00000575  00000+0  30430-4 0  9990","line2":"2 56823  43.0013  84.7207 0001484 265.2420  94.8262 15.27576210183170","mean_motion":15.2757621,"eccentricity":0.0001484,"inclination_deg":43.0013,"raan_deg":84.7207,"arg_perigee_deg":265.242,"mean_anomaly_deg":94.8262,"bstar":3.043e-5,"rev_number":18317,"period_min":94.266982594603,"perigee_km":482.04224298577,"apogee_km":484.07864638735,"semimajor_km":6861.1974446866,"source":"CELESTRAK","updated_at":"2026-09-21T09:00:33.514491Z"}}}